When you browse on this site, cookies collect data to enhance your experience and personalize the content and advertising you see.
Visit our Privacy Policy to learn more. By continuing to use the site, you agree to this use of cookies and data.
  • In Portugal
  • List of Countries
  • For 7 days
  • Water Temperature
  • Satellite Maps
  • Weather Map
  • Weather Widgets
  • user-avatar
    Login

    Hourly Weather Saurimo

    Today, 17 January, Thursday

    Time Temperature Precipitation Wind Pressure Humidity
    00:00 +20°C° 0 mm 1 mps 671 mmHg 95%
    01:00 +20°C° 0 mm 1 mps 670 mmHg 96%
    02:00 +19°C° 0 mm 1 mps 670 mmHg 96%
    03:00 +19°C° 0 mm 1 mps 670 mmHg 96%
    04:00 +19°C° 0 mm 1 mps 670 mmHg 96%
    05:00 +20°C° 0 mm 1 mps 670 mmHg 95%
    06:00 +20°C° 0 mm 1 mps 671 mmHg 93%
    07:00 +21°C° 0 mm 1 mps 671 mmHg 92%
    08:00 +23°C° 0.2 mm 1 mps 671 mmHg 86%
    09:00 +24°C° 0.2 mm 2 mps 672 mmHg 79%
    10:00 +26°C° 0.2 mm 2 mps 672 mmHg 73%
    11:00 +27°C° 0.2 mm 2 mps 672 mmHg 68%
    12:00 +28°C° 0.2 mm 2 mps 671 mmHg 64%
    13:00 +29°C° 0.2 mm 2 mps 671 mmHg 59%
    14:00 +28°C° 1.3 mm 2 mps 670 mmHg 67%
    15:00 +27°C° 1.3 mm 2 mps 670 mmHg 74%
    16:00 +26°C° 1.3 mm 2 mps 669 mmHg 82%
    17:00 +25°C° 1 mm 2 mps 669 mmHg 85%
    18:00 +23°C° 1 mm 1 mps 669 mmHg 89%
    19:00 +22°C° 1 mm 1 mps 669 mmHg 93%
    20:00 +21°C° 0.6 mm 1 mps 670 mmHg 93%
    21:00 +21°C° 0.6 mm 1 mps 670 mmHg 94%
    22:00 +21°C° 0.6 mm 1 mps 671 mmHg 94%
    23:00 +21°C° 0.3 mm 1 mps 670 mmHg 94%

    Tomorrow, 18 January, Friday

    Time Temperature Precipitation Wind Pressure Humidity
    00:00 +18°C° 0.3 mm 0 mps 670 mmHg 95%
    01:00 +18°C° 0.3 mm 0 mps 670 mmHg 95%
    02:00 +18°C° 0 mm 0 mps 670 mmHg 95%
    03:00 +18°C° 0 mm 0 mps 669 mmHg 95%
    04:00 +18°C° 0 mm 0 mps 669 mmHg 95%
    05:00 +18°C° 0 mm 0 mps 670 mmHg 94%
    06:00 +19°C° 0 mm 0 mps 670 mmHg 93%
    07:00 +21°C° 0 mm 1 mps 671 mmHg 92%
    08:00 +22°C° 0.2 mm 1 mps 671 mmHg 87%
    09:00 +24°C° 0.2 mm 1 mps 672 mmHg 81%
    10:00 +25°C° 0.2 mm 2 mps 672 mmHg 76%
    11:00 +26°C° 0.9 mm 2 mps 672 mmHg 75%
    12:00 +26°C° 0.9 mm 2 mps 671 mmHg 74%
    13:00 +27°C° 0.9 mm 2 mps 671 mmHg 73%
    14:00 +26°C° 0.6 mm 2 mps 670 mmHg 75%
    15:00 +26°C° 0.6 mm 2 mps 670 mmHg 78%
    16:00 +26°C° 0.6 mm 2 mps 669 mmHg 81%
    17:00 +24°C° 1.2 mm 2 mps 670 mmHg 85%
    18:00 +23°C° 1.2 mm 2 mps 670 mmHg 90%
    19:00 +20°C° 1.2 mm 2 mps 670 mmHg 95%
    20:00 +21°C° 0.5 mm 1 mps 671 mmHg 95%
    21:00 +21°C° 0.5 mm 1 mps 671 mmHg 96%
    22:00 +21°C° 0.5 mm 1 mps 672 mmHg 96%
    23:00 +20°C° 0.2 mm 1 mps 671 mmHg 96%

    Day after tomorrow, 19 January, Saturday

    Time Temperature Precipitation Wind Pressure Humidity
    00:00 +18°C° 0.2 mm 0 mps 670 mmHg 95%
    01:00 +18°C° 0.2 mm 0 mps 669 mmHg 94%
    02:00 +18°C° 0 mm 0 mps 669 mmHg 94%
    03:00 +19°C° 0 mm 1 mps 669 mmHg 94%
    04:00 +19°C° 0 mm 1 mps 669 mmHg 93%
    05:00 +20°C° 0 mm 1 mps 670 mmHg 93%
    06:00 +18°C° 0 mm 0 mps 670 mmHg 92%
    07:00 +19°C° 0 mm 0 mps 671 mmHg 91%
    08:00 +23°C° 0.2 mm 1 mps 671 mmHg 84%
    09:00 +24°C° 0.2 mm 2 mps 672 mmHg 78%
    10:00 +26°C° 0.2 mm 2 mps 672 mmHg 71%
    11:00 +27°C° 0.5 mm 2 mps 672 mmHg 69%
    12:00 +27°C° 0.5 mm 2 mps 671 mmHg 67%
    13:00 +28°C° 0.5 mm 2 mps 670 mmHg 65%
    14:00 +28°C° 0.7 mm 2 mps 670 mmHg 69%
    15:00 +27°C° 0.7 mm 2 mps 670 mmHg 73%
    16:00 +27°C° 0.7 mm 2 mps 669 mmHg 76%
    17:00 +25°C° 0.9 mm 2 mps 670 mmHg 82%
    18:00 +23°C° 0.9 mm 2 mps 670 mmHg 88%
    19:00 +20°C° 0.9 mm 2 mps 670 mmHg 94%
    20:00 +20°C° 0.2 mm 2 mps 671 mmHg 95%
    21:00 +19°C° 0.2 mm 2 mps 671 mmHg 96%
    22:00 +19°C° 0.2 mm 2 mps 672 mmHg 97%
    23:00 +19°C° 0 mm 2 mps 671 mmHg 97%

    20 January, Sunday

    Time Temperature Precipitation Wind Pressure Humidity
    00:00 +20°C° 0 mm 1 mps 671 mmHg 98%
    01:00 +19°C° 0 mm 1 mps 670 mmHg 98%
    02:00 +19°C° 0 mm 1 mps 670 mmHg 98%
    03:00 +19°C° 0 mm 1 mps 670 mmHg 98%
    04:00 +19°C° 0 mm 1 mps 670 mmHg 98%
    05:00 +19°C° 0.1 mm 1 mps 670 mmHg 97%
    06:00 +20°C° 0.1 mm 1 mps 671 mmHg 96%
    07:00 +20°C° 0.1 mm 1 mps 672 mmHg 95%
    08:00 +22°C° 0.6 mm 1 mps 672 mmHg 92%
    09:00 +23°C° 0.6 mm 2 mps 672 mmHg 88%
    10:00 +24°C° 0.6 mm 2 mps 673 mmHg 85%
    11:00 +25°C° 1 mm 2 mps 672 mmHg 82%
    12:00 +26°C° 1 mm 2 mps 671 mmHg 79%
    13:00 +26°C° 1 mm 2 mps 671 mmHg 76%
    14:00 +26°C° 1.2 mm 2 mps 670 mmHg 79%
    15:00 +25°C° 1.2 mm 3 mps 670 mmHg 82%
    16:00 +25°C° 1.2 mm 3 mps 670 mmHg 86%
    17:00 +24°C° 1.4 mm 2 mps 670 mmHg 89%
    18:00 +23°C° 1.4 mm 2 mps 670 mmHg 92%
    19:00 +21°C° 1.4 mm 1 mps 670 mmHg 94%
    20:00 +21°C° 0.2 mm 1 mps 671 mmHg 95%
    21:00 +21°C° 0.2 mm 1 mps 671 mmHg 95%
    22:00 +19°C° 0.2 mm 0 mps 672 mmHg 96%
    23:00 +19°C° 0.2 mm 0 mps 671 mmHg 96%

    21 January, Monday

    Time Temperature Precipitation Wind Pressure Humidity
    00:00 +18°C° 0.2 mm 0 mps 671 mmHg 96%
    01:00 +18°C° 0.2 mm 0 mps 670 mmHg 96%
    02:00 +18°C° 0 mm 0 mps 670 mmHg 96%
    03:00 +20°C° 0 mm 1 mps 670 mmHg 97%
    04:00 +20°C° 0 mm 1 mps 670 mmHg 97%
    05:00 +20°C° 0 mm 1 mps 670 mmHg 95%
    06:00 +20°C° 0 mm 1 mps 671 mmHg 94%
    07:00 +21°C° 0 mm 1 mps 671 mmHg 93%
    08:00 +22°C° 0.3 mm 1 mps 672 mmHg 89%
    09:00 +23°C° 0.3 mm 1 mps 672 mmHg 85%
    10:00 +25°C° 0.3 mm 1 mps 672 mmHg 81%
    11:00 +26°C° 0.5 mm 2 mps 672 mmHg 76%
    12:00 +26°C° 0.5 mm 2 mps 671 mmHg 71%
    13:00 +27°C° 0.5 mm 2 mps 670 mmHg 66%
    14:00 +27°C° 0.2 mm 2 mps 670 mmHg 71%
    15:00 +26°C° 0.2 mm 2 mps 669 mmHg 76%
    16:00 +25°C° 0.2 mm 2 mps 669 mmHg 81%
    17:00 +24°C° 0.2 mm 2 mps 669 mmHg 85%
    18:00 +23°C° 0.2 mm 2 mps 669 mmHg 90%
    19:00 +22°C° 0.2 mm 1 mps 669 mmHg 94%
    20:00 +21°C° 0.3 mm 1 mps 670 mmHg 94%
    21:00 +21°C° 0.3 mm 1 mps 670 mmHg 95%
    22:00 +18°C° 0.3 mm 0 mps 670 mmHg 95%
    23:00 +18°C° 0 mm 0 mps 670 mmHg 95%

    22 January, Tuesday

    Time Temperature Precipitation Wind Pressure Humidity
    00:00 +18°C° 0 mm 0 mps 670 mmHg 95%
    01:00 +17°C° 0 mm 0 mps 669 mmHg 95%
    02:00 +17°C° 0 mm 0 mps 669 mmHg 95%
    03:00 +17°C° 0 mm 0 mps 669 mmHg 96%
    04:00 +19°C° 0 mm 1 mps 669 mmHg 96%
    05:00 +18°C° 0 mm 0 mps 669 mmHg 94%
    06:00 +18°C° 0 mm 0 mps 670 mmHg 93%
    07:00 +19°C° 0 mm 0 mps 671 mmHg 91%
    08:00 +23°C° 0.2 mm 1 mps 671 mmHg 84%
    09:00 +25°C° 0.2 mm 1 mps 671 mmHg 76%
    10:00 +27°C° 0.2 mm 2 mps 672 mmHg 69%
    11:00 +28°C° 0.7 mm 2 mps 671 mmHg 67%
    12:00 +28°C° 0.7 mm 2 mps 670 mmHg 66%
    13:00 +29°C° 0.7 mm 3 mps 670 mmHg 64%
    14:00 +28°C° 1 mm 2 mps 669 mmHg 68%
    15:00 +28°C° 1 mm 2 mps 669 mmHg 71%
    16:00 +28°C° 1 mm 1 mps 668 mmHg 75%
    17:00 +26°C° 0.8 mm 1 mps 669 mmHg 80%
    18:00 +24°C° 0.8 mm 1 mps 669 mmHg 84%
    19:00 +20°C° 0.8 mm 0 mps 669 mmHg 89%
    20:00 +20°C° 0.1 mm 0 mps 669 mmHg 90%
    21:00 +19°C° 0.1 mm 0 mps 670 mmHg 91%
    22:00 +19°C° 0.1 mm 0 mps 670 mmHg 93%
    23:00 +18°C° 0 mm 0 mps 669 mmHg 93%
    Show more